Location: ???????
(55.8860°N, 38.0932°E)
Time: 22:56:19
(UTC+00:00)

CZ-2C R/B - Pass Details

Date: 14 April 2024
Orbit: 704 x 904 km, 98.2° (Epoch: 23 May)

Event Time Altitude Azimuth Distance (km) Brightness Sun altitude
Rises 01:28:12 0° 11° (N) 3,177 6.9 -8.0°
Reaches altitude 10° 01:30:41 10° 0° (N) 2,275 5.9 -7.7°
Maximum altitude 01:34:57 29° 302° (WNW) 1,385 4.1 -7.2°
Drops below altitude 10° 01:39:23 10° 243° (WSW) 2,368 4.8 -6.6°
Enters shadow 01:39:54 - 241° (WSW) 2,550 5.0 -6.5°
